| time (UTC) | temp C | wind direction | speed KPH | gust KPH | rain 1hr cm | rain 24hr cm | rain mn cm | humidity % | barometer mb |
| 20260906215005 | 31 | 111 | 8.0 | 19.3 | 0.00 | 0.00 | 0.00 | 31 | 1003.2 |
| 20260906214505 | 31 | 112 | 9.7 | 19.3 | 0.00 | 0.00 | 0.00 | 31 | 1003.3 |
| 20260906214006 | 31 | 120 | 8.0 | 16.1 | 0.00 | 0.00 | 0.00 | 30 | 1003.5 |
| 20260906213506 | 31 | 115 | 4.8 | 12.9 | 0.00 | 0.00 | 0.00 | 32 | 1003.6 |
| 20260906212506 | 30 | 121 | 11.3 | 19.3 | 0.00 | 0.00 | 0.00 | 36 | 1003.8 |
| 20260906212005 | 30 | 144 | 9.7 | 19.3 | 0.00 | 0.00 | 0.00 | 35 | 1003.9 |
| 20260906211505 | 30 | 77 | 6.4 | 16.1 | 0.00 | 0.00 | 0.00 | 35 | 1004.0 |
| 20260906210506 | 30 | 99 | 8.0 | 14.5 | 0.00 | 0.00 | 0.00 | 36 | 1004.1 |
| 20260906205506 | 31 | 122 | 8.0 | 19.3 | 0.00 | 0.00 | 0.00 | 33 | 1004.2 |
| 20260906204005 | 30 | 105 | 6.4 | 12.9 | 0.00 | 0.00 | 0.00 | 33 | 1004.5 |
| 20260906203505 | 30 | 134 | 4.8 | 14.5 | 0.00 | 0.00 | 0.00 | 33 | 1004.5 |
| 20260906203005 | 30 | 80 | 4.8 | 19.3 | 0.00 | 0.00 | 0.00 | 33 | 1004.6 |
| 20260906202505 | 31 | 123 | 4.8 | 12.9 | 0.00 | 0.00 | 0.00 | 33 | 1004.7 |
| 20260906202005 | 31 | 87 | 4.8 | 16.1 | 0.00 | 0.00 | 0.00 | 31 | 1004.7 |
| 20260906201505 | 31 | 73 | 4.8 | 12.9 | 0.00 | 0.00 | 0.00 | 32 | 1004.8 |
| 20260906201005 | 31 | 94 | 8.0 | 12.9 | 0.00 | 0.00 | 0.00 | 30 | 1004.9 |
| 20260906200506 | 32 | 103 | 4.8 | 20.9 | 0.00 | 0.00 | 0.00 | 29 | 1004.9 |
| 20260906195505 | 31 | 149 | 4.8 | 19.3 | 0.00 | 0.00 | 0.00 | 30 | 1005.0 |
| 20260906195005 | 32 | 158 | 11.3 | 19.3 | 0.00 | 0.00 | 0.00 | 30 | 1005.2 |
| 20260906194505 | 32 | 165 | 4.8 | 19.3 | 0.00 | 0.00 | 0.00 | 29 | 1005.3 |
| 20260906194005 | 32 | 131 | 8.0 | 19.3 | 0.00 | 0.00 | 0.00 | 30 | 1005.4 |
| 20260906193506 | 32 | 147 | 8.0 | 19.3 | 0.00 | 0.00 | 0.00 | 30 | 1005.5 |
| 20260906193005 | 31 | 85 | 3.2 | 9.7 | 0.00 | 0.00 | 0.00 | 30 | 1005.4 |
| 20260906192505 | 31 | 109 | 4.8 | 11.3 | 0.00 | 0.00 | 0.00 | 30 | 1005.6 |
| 20260906192005 | 31 | 154 | 4.8 | 19.3 | 0.00 | 0.00 | 0.00 | 29 | 1005.7 |
| 20260906190505 | 31 | 167 | 3.2 | 9.7 | 0.00 | 0.00 | 0.00 | 29 | 1006.1 |
| 20260906190005 | 31 | 178 | 9.7 | 19.3 | 0.00 | 0.00 | 0.00 | 29 | 1006.2 |
| 20260906185005 | 31 | 94 | 3.2 | 11.3 | 0.00 | 0.00 | 0.00 | 32 | 1006.3 |
| 20260906184505 | 31 | 310 | 4.8 | 11.3 | 0.00 | 0.00 | 0.00 | 29 | 1006.5 |
| 20260906184005 | 31 | 95 | 3.2 | 14.5 | 0.00 | 0.00 | 0.00 | 32 | 1006.7 |
| 20260906183505 | 30 | 79 | 4.8 | 8.0 | 0.00 | 0.00 | 0.00 | 31 | 1006.8 |
| 20260906183005 | 30 | 104 | 6.4 | 12.9 | 0.00 | 0.00 | 0.00 | 32 | 1006.9 |
| 20260906182505 | 30 | 185 | 3.2 | 11.3 | 0.00 | 0.00 | 0.00 | 33 | 1007.1 |
| 20260906182005 | 29 | 162 | 4.8 | 9.7 | 0.00 | 0.00 | 0.00 | 35 | 1007.2 |
| 20260906181505 | 29 | 159 | 6.4 | 16.1 | 0.00 | 0.00 | 0.00 | 33 | 1007.4 |
| 20260906181005 | 29 | 51 | 3.2 | 9.7 | 0.00 | 0.00 | 0.00 | 33 | 1007.4 |
| 20260906180505 | 28 | 93 | 3.2 | 9.7 | 0.00 | 0.00 | 0.00 | 34 | 1007.6 |
| 20260906175505 | 28 | 154 | 1.6 | 11.3 | 0.00 | 0.00 | 0.00 | 35 | 1007.8 |
| 20260906175005 | 28 | 160 | 4.8 | 9.7 | 0.00 | 0.00 | 0.00 | 36 | 1008.0 |
| 20260906174505 | 27 | 146 | 3.2 | 11.3 | 0.00 | 0.00 | 0.00 | 36 | 1008.1 |
| 20260906173505 | 27 | 158 | 4.8 | 11.3 | 0.00 | 0.00 | 0.00 | 39 | 1008.2 |
| 20260906173005 | 27 | 117 | 3.2 | 4.8 | 0.00 | 0.00 | 0.00 | 38 | 1008.3 |
| 20260906172005 | 26 | 129 | 1.6 | 4.8 | 0.00 | 0.00 | 0.00 | 42 | 1008.5 |
| 20260906171504 | 25 | 175 | 1.6 | 4.8 | 0.00 | 0.00 | 0.00 | 44 | 1008.6 |
| 20260906171006 | 25 | 188 | 3.2 | 8.0 | 0.00 | 0.00 | 0.00 | 45 | 1008.6 |
| 20260906170506 | 25 | 278 | 3.2 | 9.7 | 0.00 | 0.00 | 0.00 | 46 | 1008.6 |
| 20260906170005 | 24 | 172 | 1.6 | 4.8 | 0.00 | 0.00 | 0.00 | 47 | 1008.7 |
| 20260906165504 | 24 | 173 | 3.2 | 9.7 | 0.00 | 0.00 | 0.00 | 47 | 1008.7 |
| 20260906165005 | 23 | 191 | 3.2 | 4.8 | 0.00 | 0.00 | 0.00 | 48 | 1008.7 |
| 20260906163005 | 22 | 311 | 1.6 | 4.8 | 0.00 | 0.00 | 0.00 | 50 | 1008.9 |
| 20260906162505 | 22 | 315 | 3.2 | 4.8 | 0.00 | 0.00 | 0.00 | 52 | 1009.0 |
| 20260906162005 | 22 | 314 | 1.6 | 4.8 | 0.00 | 0.00 | 0.00 | 53 | 1009.1 |
| 20260906161505 | 21 | 313 | 0.0 | 4.8 | 0.00 | 0.00 | 0.00 | 53 | 1009.1 |
| 20260906161005 | 21 | 236 | 3.2 | 4.8 | 0.00 | 0.00 | 0.00 | 53 | 1009.1 |
| 20260906160505 | 21 | 229 | 3.2 | 9.7 | 0.00 | 0.00 | 0.00 | 54 | 1009.3 |
| 20260906160005 | 21 | 241 | 3.2 | 12.9 | 0.00 | 0.00 | 0.00 | 55 | 1009.2 |
| 20260906155505 | 21 | 312 | 3.2 | 4.8 | 0.00 | 0.00 | 0.00 | 55 | 1009.0 |
| 20260906155005 | 20 | 323 | 3.2 | 4.8 | 0.00 | 0.00 | 0.00 | 56 | 1009.0 |
| 20260906154505 | 20 | 316 | 3.2 | 8.0 | 0.00 | 0.00 | 0.00 | 56 | 1009.0 |
| 20260906154006 | 20 | 321 | 4.8 | 8.0 | 0.00 | 0.00 | 0.00 | 54 | 1009.0 |
| 20260906153505 | 20 | 324 | 3.2 | 8.0 | 0.00 | 0.00 | 0.00 | 58 | 1009.0 |
| 20260906153005 | 19 | 302 | 3.2 | 4.8 | 0.00 | 0.00 | 0.00 | 59 | 1009.0 |
| 20260906152505 | 19 | 282 | 3.2 | 4.8 | 0.00 | 0.00 | 0.00 | 58 | 1009.0 |
| 20260906152005 | 18 | 217 | 0.0 | 4.8 | 0.00 | 0.00 | 0.00 | 61 | 1008.9 |
| 20260906151505 | 18 | 217 | 1.6 | 8.0 | 0.00 | 0.00 | 0.00 | 62 | 1009.0 |
| 20260906151005 | 18 | 317 | 1.6 | 4.8 | 0.00 | 0.00 | 0.00 | 65 | 1009.0 |
| 20260906150505 | 18 | 323 | 1.6 | 4.8 | 0.00 | 0.00 | 0.00 | 66 | 1009.1 |
| 20260906150005 | 18 | 323 | 0.0 | 1.6 | 0.00 | 0.00 | 0.00 | 68 | 1009.2 |
| 20260906145505 | 18 | 323 | 3.2 | 4.8 | 0.00 | 0.00 | 0.00 | 68 | 1009.2 |
| 20260906145005 | 18 | 323 | 0.0 | 3.2 | 0.00 | 0.00 | 0.00 | 69 | 1009.2 |
| 20260906144505 | 18 | 322 | 1.6 | 3.2 | 0.00 | 0.00 | 0.00 | 68 | 1009.2 |
| 20260906144005 | 18 | 338 | 0.0 | 4.8 | 0.00 | 0.00 | 0.00 | 68 | 1009.2 |
| 20260906143505 | 18 | 17 | 1.6 | 3.2 | 0.00 | 0.00 | 0.00 | 65 | 1009.2 |
| 20260906142505 | 18 | 0 | 1.6 | 3.2 | 0.00 | 0.00 | 0.00 | 62 | 1009.3 |
| 20260906142004 | 18 | 0 | 1.6 | 3.2 | 0.00 | 0.00 | 0.00 | 63 | 1009.3 |
| 20260906141504 | 18 | 0 | 0.0 | 1.6 | 0.00 | 0.00 | 0.00 | 63 | 1009.5 |
| 20260906141004 | 18 | 0 | 0.0 | 0.0 | 0.00 | 0.00 | 0.00 | 61 | 1009.4 |
| 20260906140505 | 18 | 0 | 0.0 | 1.6 | 0.00 | 0.00 | 0.00 | 62 | 1009.4 |
| 20260906140005 | 17 | 0 | 0.0 | 3.2 | 0.00 | 0.00 | 0.00 | 62 | 1009.4 |
| 20260906135507 | 17 | 0 | 0.0 | 0.0 | 0.00 | 0.00 | 0.00 | 66 | 1009.4 |
| 20260906135004 | 16 | 0 | 0.0 | 0.0 | 0.00 | 0.00 | 0.00 | 68 | 1009.3 |
| 20260906134504 | 15 | 0 | 0.0 | 0.0 | 0.00 | 0.00 | 0.00 | 69 | 1009.1 |
| 20260906134004 | 15 | 15 | 0.0 | 0.0 | 0.00 | 0.00 | 0.00 | 71 | 1009.1 |
| 20260906133505 | 14 | 15 | 0.0 | 0.0 | 0.00 | 0.00 | 0.00 | 72 | 1009.0 |
| 20260906133005 | 14 | 15 | 0.0 | 0.0 | 0.00 | 0.00 | 0.00 | 73 | 1008.9 |
| 20260906132505 | 14 | 15 | 0.0 | 0.0 | 0.00 | 0.00 | 0.00 | 72 | 1008.9 |
| 20260906132005 | 14 | 15 | 0.0 | 0.0 | 0.00 | 0.00 | 0.00 | 72 | 1008.8 |
| 20260906131505 | 13 | 15 | 0.0 | 0.0 | 0.00 | 0.00 | 0.00 | 73 | 1008.8 |
| 20260906131006 | 13 | 15 | 0.0 | 0.0 | 0.00 | 0.00 | 0.00 | 74 | 1008.9 |
| 20260906130505 | 13 | 15 | 0.0 | 0.0 | 0.00 | 0.00 | 0.00 | 73 | 1008.8 |
| 20260906130004 | 14 | 15 | 0.0 | 0.0 | 0.00 | 0.00 | 0.00 | 72 | 1008.8 |
| 20260906125504 | 14 | 15 | 0.0 | 1.6 | 0.00 | 0.00 | 0.00 | 71 | 1008.9 |
| 20260906125004 | 15 | 15 | 0.0 | 0.0 | 0.00 | 0.00 | 0.00 | 70 | 1008.9 |
| 20260906124504 | 14 | 15 | 0.0 | 0.0 | 0.00 | 0.00 | 0.00 | 70 | 1008.8 |
| 20260906124005 | 14 | 15 | 0.0 | 0.0 | 0.00 | 0.00 | 0.00 | 71 | 1008.7 |
| 20260906123505 | 14 | 15 | 0.0 | 0.0 | 0.00 | 0.00 | 0.00 | 71 | 1008.7 |
| 20260906123005 | 14 | 15 | 0.0 | 0.0 | 0.00 | 0.00 | 0.00 | 71 | 1008.7 |
| 20260906122504 | 14 | 15 | 0.0 | 0.0 | 0.00 | 0.00 | 0.00 | 70 | 1008.6 |
| 20260906122004 | 14 | 15 | 0.0 | 0.0 | 0.00 | 0.00 | 0.00 | 71 | 1008.6 |
| 20260906121504 | 14 | 15 | 0.0 | 0.0 | 0.00 | 0.00 | 0.00 | 71 | 1008.5 |
| 20260906121005 | 14 | 15 | 0.0 | 0.0 | 0.00 | 0.00 | 0.00 | 72 | 1008.6 |
| 20260906120505 | 14 | 15 | 0.0 | 0.0 | 0.00 | 0.00 | 0.00 | 72 | 1008.7 |
| 20260906120005 | 14 | 15 | 0.0 | 0.0 | 0.00 | 0.00 | 0.00 | 72 | 1008.6 |
| 20260906115505 | 14 | 15 | 0.0 | 0.0 | 0.00 | 0.00 | 0.00 | 70 | 1008.5 |
| 20260906114504 | 14 | 15 | 0.0 | 0.0 | 0.00 | 0.00 | 0.00 | 71 | 1008.6 |
| 20260906114004 | 14 | 15 | 0.0 | 0.0 | 0.00 | 0.00 | 0.00 | 70 | 1008.5 |
| 20260906113504 | 15 | 15 | 0.0 | 1.6 | 0.00 | 0.00 | 0.00 | 69 | 1008.5 |
| 20260906112505 | 15 | 15 | 0.0 | 0.0 | 0.00 | 0.00 | 0.00 | 70 | 1008.3 |
| 20260906112005 | 15 | 15 | 0.0 | 0.0 | 0.00 | 0.00 | 0.00 | 70 | 1008.3 |
| 20260906111005 | 15 | 15 | 0.0 | 0.0 | 0.00 | 0.00 | 0.00 | 69 | 1008.3 |
| 20260906110504 | 15 | 15 | 0.0 | 1.6 | 0.00 | 0.00 | 0.00 | 69 | 1008.3 |
| 20260906110004 | 15 | 15 | 0.0 | 0.0 | 0.00 | 0.00 | 0.00 | 70 | 1008.3 |
| 20260906105504 | 15 | 15 | 0.0 | 0.0 | 0.00 | 0.00 | 0.00 | 70 | 1008.3 |
| 20260906105004 | 15 | 15 | 0.0 | 1.6 | 0.00 | 0.00 | 0.00 | 71 | 1008.1 |
| 20260906104504 | 15 | 15 | 1.6 | 3.2 | 0.00 | 0.00 | 0.00 | 71 | 1008.1 |
| 20260906104005 | 15 | 15 | 0.0 | 0.0 | 0.00 | 0.00 | 0.00 | 69 | 1008.0 |
| 20260906103005 | 16 | 15 | 0.0 | 0.0 | 0.00 | 0.00 | 0.00 | 66 | 1008.1 |
| 20260906102505 | 16 | 15 | 0.0 | 0.0 | 0.00 | 0.00 | 0.00 | 66 | 1008.1 |
| 20260906102005 | 16 | 16 | 0.0 | 0.0 | 0.00 | 0.00 | 0.00 | 66 | 1008.2 |
| 20260906101505 | 16 | 16 | 0.0 | 0.0 | 0.00 | 0.00 | 0.00 | 65 | 1008.1 |
| 20260906100504 | 16 | 16 | 0.0 | 1.6 | 0.00 | 0.00 | 0.00 | 68 | 1007.8 |
| 20260906100004 | 16 | 16 | 0.0 | 1.6 | 0.00 | 0.00 | 0.00 | 67 | 1007.8 |
| 20260906095504 | 16 | 16 | 0.0 | 1.6 | 0.00 | 0.00 | 0.00 | 65 | 1007.8 |
| 20260906095005 | 16 | 16 | 0.0 | 0.0 | 0.00 | 0.00 | 0.00 | 63 | 1007.7 |
| 20260906094005 | 16 | 16 | 0.0 | 1.6 | 0.00 | 0.00 | 0.00 | 61 | 1007.6 |
| 20260906093505 | 17 | 16 | 0.0 | 0.0 | 0.00 | 0.00 | 0.00 | 61 | 1007.7 |
| 20260906093004 | 17 | 16 | 0.0 | 0.0 | 0.00 | 0.00 | 0.00 | 60 | 1007.7 |
| 20260906092004 | 17 | 16 | 0.0 | 0.0 | 0.00 | 0.00 | 0.00 | 61 | 1007.6 |
| 20260906091504 | 17 | 16 | 0.0 | 0.0 | 0.00 | 0.00 | 0.00 | 61 | 1007.7 |
| 20260906091004 | 17 | 16 | 0.0 | 0.0 | 0.00 | 0.00 | 0.00 | 61 | 1007.6 |
| 20260906090504 | 17 | 16 | 0.0 | 0.0 | 0.00 | 0.00 | 0.00 | 61 | 1007.6 |
| 20260906090005 | 16 | 16 | 0.0 | 0.0 | 0.00 | 0.00 | 0.00 | 62 | 1007.5 |
| 20260906085504 | 17 | 16 | 0.0 | 0.0 | 0.00 | 0.00 | 0.00 | 62 | 1007.5 |
| 20260906085004 | 17 | 16 | 0.0 | 0.0 | 0.00 | 0.00 | 0.00 | 61 | 1007.5 |
| 20260906084504 | 17 | 16 | 0.0 | 0.0 | 0.00 | 0.00 | 0.00 | 61 | 1007.5 |
| 20260906084004 | 17 | 15 | 0.0 | 0.0 | 0.00 | 0.00 | 0.00 | 61 | 1007.5 |
| 20260906083504 | 17 | 15 | 0.0 | 0.0 | 0.00 | 0.00 | 0.00 | 60 | 1007.6 |
| 20260906083004 | 17 | 15 | 0.0 | 0.0 | 0.00 | 0.00 | 0.00 | 60 | 1007.6 |
| 20260906082504 | 17 | 15 | 0.0 | 0.0 | 0.00 | 0.00 | 0.00 | 59 | 1007.6 |
| 20260906081504 | 17 | 15 | 0.0 | 1.6 | 0.00 | 0.00 | 0.00 | 59 | 1007.7 |
| 20260906081005 | 17 | 15 | 0.0 | 1.6 | 0.00 | 0.00 | 0.00 | 59 | 1007.8 |
| 20260906080504 | 17 | 15 | 0.0 | 0.0 | 0.00 | 0.00 | 0.00 | 58 | 1007.7 |
| 20260906080004 | 17 | 15 | 0.0 | 0.0 | 0.00 | 0.00 | 0.00 | 58 | 1007.8 |
| 20260906075504 | 18 | 15 | 0.0 | 0.0 | 0.00 | 0.00 | 0.00 | 57 | 1007.8 |
| 20260906075005 | 18 | 15 | 0.0 | 0.0 | 0.00 | 0.00 | 0.00 | 56 | 1007.8 |
| 20260906074504 | 18 | 15 | 0.0 | 0.0 | 0.00 | 0.00 | 0.00 | 55 | 1007.9 |
| 20260906074004 | 18 | 15 | 0.0 | 0.0 | 0.00 | 0.00 | 0.00 | 54 | 1007.8 |
| 20260906073504 | 18 | 15 | 0.0 | 0.0 | 0.00 | 0.00 | 0.00 | 54 | 1007.8 |
| 20260906073004 | 19 | 15 | 0.0 | 0.0 | 0.00 | 0.00 | 0.00 | 53 | 1007.8 |
| 20260906072504 | 20 | 15 | 0.0 | 0.0 | 0.00 | 0.00 | 0.00 | 51 | 1007.8 |
| 20260906072005 | 20 | 15 | 0.0 | 0.0 | 0.00 | 0.00 | 0.00 | 51 | 1007.7 |
| 20260906071505 | 20 | 15 | 0.0 | 1.6 | 0.00 | 0.00 | 0.00 | 51 | 1007.7 |
| 20260906071005 | 20 | 15 | 0.0 | 0.0 | 0.00 | 0.00 | 0.00 | 50 | 1007.7 |
| 20260906070504 | 20 | 15 | 0.0 | 0.0 | 0.00 | 0.00 | 0.00 | 50 | 1007.6 |
| 20260906070004 | 20 | 15 | 0.0 | 0.0 | 0.00 | 0.00 | 0.00 | 50 | 1007.5 |
| 20260906065004 | 20 | 15 | 0.0 | 0.0 | 0.00 | 0.00 | 0.00 | 50 | 1007.5 |
| 20260906064504 | 20 | 15 | 0.0 | 0.0 | 0.00 | 0.00 | 0.00 | 51 | 1007.5 |
| 20260906064004 | 21 | 321 | 0.0 | 0.0 | 0.00 | 0.00 | 0.00 | 50 | 1007.5 |
| 20260906063504 | 21 | 323 | 0.0 | 0.0 | 0.00 | 0.00 | 0.00 | 48 | 1007.5 |
| 20260906063004 | 21 | 323 | 0.0 | 1.6 | 0.00 | 0.00 | 0.00 | 47 | 1007.4 |
| 20260906062504 | 21 | 324 | 0.0 | 1.6 | 0.00 | 0.00 | 0.00 | 48 | 1007.4 |
| 20260906061505 | 21 | 324 | 0.0 | 1.6 | 0.00 | 0.00 | 0.00 | 47 | 1007.4 |
| 20260906061004 | 22 | 324 | 0.0 | 1.6 | 0.00 | 0.00 | 0.00 | 46 | 1007.3 |
| 20260906060504 | 22 | 323 | 1.6 | 8.0 | 0.00 | 0.00 | 0.00 | 47 | 1007.4 |
| 20260906060004 | 21 | 323 | 4.8 | 9.7 | 0.00 | 0.00 | 0.00 | 53 | 1007.4 |
| 20260906055504 | 22 | 280 | 1.6 | 4.8 | 0.00 | 0.00 | 0.00 | 58 | 1007.4 |
| 20260906055004 | 22 | 277 | 0.0 | 0.0 | 0.00 | 0.00 | 0.00 | 58 | 1007.5 |
| 20260906054504 | 22 | 277 | 0.0 | 1.6 | 0.00 | 0.00 | 0.00 | 58 | 1007.5 |
| 20260906054004 | 22 | 278 | 1.6 | 4.8 | 0.00 | 0.00 | 0.00 | 59 | 1007.5 |
| 20260906053504 | 22 | 275 | 1.6 | 4.8 | 0.00 | 0.00 | 0.00 | 59 | 1007.4 |
| 20260906052004 | 21 | 265 | 0.0 | 0.0 | 0.00 | 0.00 | 0.00 | 59 | 1007.4 |
| 20260906051504 | 21 | 265 | 0.0 | 0.0 | 0.00 | 0.00 | 0.00 | 59 | 1007.5 |
| 20260906051004 | 21 | 265 | 1.6 | 3.2 | 0.00 | 0.00 | 0.00 | 58 | 1007.5 |
| 20260906050504 | 21 | 265 | 0.0 | 1.6 | 0.00 | 0.00 | 0.00 | 58 | 1007.6 |
| 20260906045504 | 21 | 204 | 0.0 | 1.6 | 0.00 | 0.00 | 0.00 | 57 | 1007.7 |
| 20260906045004 | 22 | 204 | 0.0 | 1.6 | 0.00 | 0.00 | 0.00 | 57 | 1007.7 |
| 20260906044504 | 22 | 204 | 0.0 | 0.0 | 0.00 | 0.00 | 0.00 | 56 | 1007.8 |
| 20260906043504 | 22 | 204 | 0.0 | 0.0 | 0.00 | 0.00 | 0.00 | 54 | 1007.8 |
| 20260906043004 | 22 | 204 | 0.0 | 1.6 | 0.00 | 0.00 | 0.00 | 54 | 1007.6 |
| 20260906042504 | 23 | 204 | 1.6 | 3.2 | 0.00 | 0.00 | 0.00 | 53 | 1007.8 |
| 20260906042005 | 23 | 204 | 0.0 | 0.0 | 0.00 | 0.00 | 0.00 | 52 | 1007.8 |
| 20260906041004 | 23 | 204 | 0.0 | 3.2 | 0.00 | 0.00 | 0.00 | 52 | 1007.8 |
| 20260906040504 | 23 | 204 | 0.0 | 0.0 | 0.00 | 0.00 | 0.00 | 51 | 1007.9 |
| 20260906040004 | 23 | 204 | 0.0 | 0.0 | 0.00 | 0.00 | 0.00 | 49 | 1007.8 |
| 20260906035505 | 23 | 204 | 0.0 | 0.0 | 0.00 | 0.00 | 0.00 | 49 | 1007.8 |
| 20260906035004 | 23 | 204 | 0.0 | 0.0 | 0.00 | 0.00 | 0.00 | 47 | 1007.9 |
| 20260906034504 | 23 | 204 | 0.0 | 3.2 | 0.00 | 0.00 | 0.00 | 48 | 1007.9 |
| 20260906034004 | 23 | 204 | 3.2 | 12.9 | 0.00 | 0.00 | 0.00 | 43 | 1007.9 |
| 20260906033504 | 23 | 134 | 1.6 | 4.8 | 0.00 | 0.00 | 0.00 | 45 | 1007.9 |
| 20260906033004 | 23 | 143 | 3.2 | 8.0 | 0.00 | 0.00 | 0.00 | 43 | 1007.9 |
| 20260906032504 | 22 | 232 | 4.8 | 12.9 | 0.00 | 0.00 | 0.00 | 43 | 1008.0 |
| 20260906032004 | 22 | 282 | 1.6 | 4.8 | 0.00 | 0.00 | 0.00 | 40 | 1008.0 |
| 20260906031004 | 23 | 300 | 1.6 | 20.9 | 0.00 | 0.00 | 0.00 | 45 | 1007.7 |
| 20260906030008 | 23 | 183 | 0.0 | 3.2 | 0.00 | 0.00 | 0.00 | 36 | 1007.0 |
| 20260906025505 | 23 | 183 | 0.0 | 0.0 | 0.00 | 0.00 | 0.00 | 35 | 1006.6 |
| 20260906024006 | 24 | 184 | 0.0 | 0.0 | 0.00 | 0.00 | 0.00 | 33 | 1006.4 |
| 20260906023006 | 24 | 184 | 0.0 | 4.8 | 0.00 | 0.00 | 0.00 | 34 | 1006.3 |
| 20260906021006 | 25 | 185 | 0.0 | 0.0 | 0.00 | 0.00 | 0.00 | 31 | 1006.3 |
| 20260906020006 | 25 | 184 | 0.0 | 0.0 | 0.00 | 0.00 | 0.00 | 31 | 1006.2 |
| 20260906015506 | 25 | 184 | 0.0 | 0.0 | 0.00 | 0.00 | 0.00 | 31 | 1006.2 |
| 20260906015006 | 25 | 17 | 0.0 | 0.0 | 0.00 | 0.00 | 0.00 | 30 | 1006.2 |
| 20260906014506 | 26 | 13 | 0.0 | 0.0 | 0.00 | 0.00 | 0.00 | 29 | 1006.0 |
| 20260906014006 | 26 | 184 | 0.0 | 0.0 | 0.00 | 0.00 | 0.00 | 29 | 1006.0 |
| 20260906013506 | 26 | 13 | 0.0 | 1.6 | 0.00 | 0.00 | 0.00 | 28 | 1006.0 |
| 20260906013005 | 27 | 175 | 0.0 | 3.2 | 0.00 | 0.00 | 0.00 | 28 | 1006.0 |
| 20260906012006 | 27 | 184 | 3.2 | 4.8 | 0.00 | 0.00 | 0.00 | 26 | 1006.0 |
| 20260906011506 | 28 | 179 | 3.2 | 4.8 | 0.00 | 0.00 | 0.00 | 26 | 1005.9 |
| 20260906011005 | 28 | 209 | 3.2 | 4.8 | 0.00 | 0.00 | 0.00 | 26 | 1006.0 |
| 20260906010506 | 28 | 238 | 6.4 | 11.3 | 0.00 | 0.00 | 0.00 | 25 | 1006.0 |
| 20260906010006 | 29 | 212 | 1.6 | 3.2 | 0.00 | 0.00 | 0.00 | 25 | 1006.0 |
| 20260906005005 | 30 | 0 | 1.6 | 4.8 | 0.00 | 0.00 | 0.00 | 24 | 1006.1 |
| 20260906004506 | 30 | 0 | 3.2 | 4.8 | 0.00 | 0.00 | 0.00 | 24 | 1006.2 |
| 20260906004006 | 30 | 238 | 4.8 | 9.7 | 0.00 | 0.00 | 0.00 | 24 | 1006.2 |
| 20260906003006 | 30 | 236 | 6.4 | 14.5 | 0.00 | 0.00 | 0.00 | 24 | 1006.2 |
| 20260906002506 | 30 | 226 | 6.4 | 12.9 | 0.00 | 0.00 | 0.00 | 24 | 1006.2 |
| 20260906002007 | 30 | 204 | 6.4 | 14.5 | 0.00 | 0.00 | 0.00 | 24 | 1006.2 |
| 20260906001505 | 30 | 161 | 9.7 | 16.1 | 0.00 | 0.00 | 0.00 | 23 | 1006.3 |
| 20260905235506 | 31 | 222 | 4.8 | 9.7 | 0.00 | 0.00 | 0.00 | 24 | 1006.2 |
| 20260905235005 | 31 | 179 | 3.2 | 9.7 | 0.00 | 0.00 | 0.00 | 24 | 1006.2 |
| 20260905234006 | 31 | 177 | 4.8 | 16.1 | 0.00 | 0.00 | 0.00 | 24 | 1006.3 |
| 20260905232506 | 30 | 150 | 6.4 | 19.3 | 0.00 | 0.00 | 0.00 | 26 | 1006.2 |
| 20260905232006 | 30 | 198 | 4.8 | 11.3 | 0.00 | 0.00 | 0.00 | 26 | 1006.3 |
| 20260905231506 | 30 | 0 | 6.4 | 12.9 | 0.00 | 0.00 | 0.00 | 25 | 1006.2 |
| 20260905231006 | 30 | 175 | 3.2 | 8.0 | 0.00 | 0.00 | 0.00 | 25 | 1006.2 |
| 20260905230506 | 30 | 178 | 3.2 | 4.8 | 0.00 | 0.00 | 0.00 | 24 | 1006.2 |
| 20260905230006 | 30 | 176 | 3.2 | 4.8 | 0.00 | 0.00 | 0.00 | 23 | 1006.1 |
| 20260905225505 | 31 | 176 | 4.8 | 16.1 | 0.00 | 0.00 | 0.00 | 23 | 1006.1 |
| 20260905225006 | 31 | 0 | 1.6 | 4.8 | 0.00 | 0.00 | 0.00 | 23 | 1006.1 |
| 20260905224506 | 31 | 349 | 0.0 | 3.2 | 0.00 | 0.00 | 0.00 | 23 | 1006.1 |
| 20260905224006 | 31 | 148 | 3.2 | 4.8 | 0.00 | 0.00 | 0.00 | 24 | 1006.2 |
| 20260905223505 | 31 | 3 | 0.0 | 3.2 | 0.00 | 0.00 | 0.00 | 24 | 1006.3 |
| 20260905222505 | 31 | 140 | 1.6 | 4.8 | 0.00 | 0.00 | 0.00 | 22 | 1006.2 |
| 20260905221505 | 31 | 106 | 0.0 | 3.2 | 0.00 | 0.00 | 0.00 | 23 | 1006.3 |
| 20260905221005 | 32 | 102 | 3.2 | 4.8 | 0.00 | 0.00 | 0.00 | 22 | 1006.3 |
| 20260905220506 | 32 | 94 | 3.2 | 4.8 | 0.00 | 0.00 | 0.00 | 21 | 1006.3 |
| 20260905220006 | 31 | 105 | 3.2 | 9.7 | 0.00 | 0.00 | 0.00 | 22 | 1006.3 |